Wind_Speed
43 48 52 52 52 49 46 44 43 43 46 48 50 50 49 50 51 51 50 47 45 46 48 48 48 48 47 46 45 44 44 44 44 43 43 43 43 44 45 44 42 40 39 39 40 41 41 41 40 38 36 34 33 33 33 34 35 36 36 37 38 39 38 38 38 38 39 40 40 40 38 36 36 37 38 40 42 43 44 44 45 46 46 47 47
37 42 48 49 50 50 47 44 44 44 47 49 50 51 52 51 50 48 46 43 42 43 45 47 48 49 49 48 48 47 46 47 46 46 45 45 45 46 45 43 41 41 41 42 43 43 42 42 41 39 37 35 34 34 34 35 36 36 36 37 38 38 37 38 39 40 41 41 40 38 36 35 37 39 41 42 44 45 46 48 48 48 48 47 46
35 35 38 42 47 51 50 48 47 47 49 51 51 51 53 53 53 51 49 47 46 46 45 46 48 49 50 50 50 49 48 47 47 46 46 46 46 46 44 43 42 43 44 44 43 43 43 43 42 40 38 36 35 35 36 36 36 35 36 36 37 37 38 38 39 40 41 39 38 37 37 37 38 41 43 44 45 46 49 50 50 50 50 48 47
38 34 31 31 37 47 51 49 49 50 52 53 54 54 55 56 56 56 55 54 54 54 52 51 51 51 50 50 50 50 50 49 48 48 47 46 46 45 44 44 45 45 45 45 44 44 44 43 43 41 39 38 37 37 37 37 35 35 35 36 37 38 38 37 37 37 37 38 38 39 40 41 42 43 45 46 47 49 51 52 52 51 50 48 46
35 36 34 31 32 41 48 48 48 50 52 53 55 57 58 58 58 58 56 54 53 54 55 55 54 53 53 52 52 52 51 51 50 49 48 47 46 46 46 46 47 47 46 45 45 44 44 43 43 42 40 39 38 37 37 37 35 34 34 35 37 38 39 38 37 36 37 38 40 41 41 43 45 46 46 48 49 51 52 52 52 51 49 47 45
30 34 40 38 36 39 44 45 47 48 49 50 51 53 56 58 59 59 58 54 51 50 50 52 53 55 55 55 55 54 53 52 51 49 48 47 47 47 47 48 48 47 46 45 45 44 44 44 45 44 41 39 38 37 37 36 35 35 35 36 37 38 39 40 40 40 39 39 40 42 42 43 45 47 49 49 49 50 50 50 50 48 47 46 45
32 33 38 39 38 40 42 45 47 46 44 45 46 48 51 53 54 56 57 56 54 51 49 49 50 52 54 55 55 55 55 54 53 51 50 49 48 48 49 49 48 47 46 45 45 45 45 46 46 45 42 40 38 38 37 36 36 36 37 37 37 38 38 40 41 41 41 40 40 42 43 44 44 45 47 48 47 46 45 45 46 46 46 48 48
33 31 30 32 35 39 41 43 47 47 43 41 42 43 46 47 48 50 52 52 51 49 47 46 47 49 51 52 53 53 54 54 53 52 51 50 49 49 48 48 47 46 46 45 46 46 47 47 47 45 43 40 39 38 37 38 37 37 37 38 38 37 37 38 39 40 42 42 42 42 42 43 42 41 41 42 44 45 44 44 46 47 48 51 54
35 31 28 30 35 41 43 44 45 46 45 43 42 43 45 45 46 47 49 48 47 45 45 45 47 50 51 51 51 51 51 51 51 50 49 48 48 47 47 47 47 46 46 46 47 47 47 47 47 45 42 40 39 40 40 40 38 36 36 38 39 38 38 37 38 40 41 42 42 41 40 40 40 40 40 42 44 46 47 47 49 50 51 54 58
44 40 35 34 37 41 45 48 48 47 46 46 45 46 47 46 45 47 48 48 46 45 45 46 48 50 51 50 50 50 49 49 49 48 47 46 46 46 47 47 47 46 46 46 46 47 47 46 45 43 41 41 41 43 43 41 38 37 37 39 40 41 41 40 40 40 41 40 40 40 40 40 41 43 45 46 47 48 49 50 53 55 57 59 61
45 42 37 35 37 41 44 49 52 49 47 47 48 47 47 46 45 47 48 48 48 46 45 46 48 49 49 49 49 49 49 48 48 47 46 46 46 46 47 47 46 46 45 45 46 47 46 44 43 43 42 43 44 44 43 41 41 40 41 41 42 43 44 44 44 43 43 43 42 42 43 44 46 47 49 50 51 52 54 55 56 59 62 63 64
39 37 35 36 37 39 41 46 50 48 46 48 49 48 48 48 48 48 48 48 48 47 45 46 48 48 48 48 48 48 47 47 47 47 47 47 47 47 47 47 46 45 45 45 45 45 45 44 44 44 44 45 45 44 42 42 43 45 45 45 45 46 47 48 48 47 47 46 44 45 46 48 50 51 52 54 55 57 58 60 62 64 66 68 69
38 37 38 40 39 38 39 43 47 47 45 45 48 48 48 49 49 48 47 47 47 46 44 44 46 47 47 47 47 47 47 48 48 48 48 48 48 47 47 45 44 44 44 44 45 46 46 47 47 47 47 47 47 45 45 45 45 47 49 49 49 49 50 51 51 52 52 51 51 51 52 53 54 55 57 58 60 63 65 67 69 71 72 74 74
43 43 43 44 43 43 42 43 45 47 45 44 46 46 46 48 49 49 48 47 46 45 45 45 47 48 48 47 47 48 48 49 49 48 48 47 47 46 44 43 43 44 45 46 47 49 50 50 49 50 51 50 49 49 49 49 49 50 52 53 53 53 53 54 55 56 56 57 57 57 58 58 59 60 62 64 66 69 71 73 75 77 78 79 79
48 49 48 46 45 47 47 47 48 48 48 47 47 46 47 48 50 51 51 49 47 46 47 48 49 49 49 48 48 48 49 49 48 48 47 46 45 45 44 45 46 48 49 50 52 52 52 52 52 54 55 54 52 51 52 53 53 54 55 55 56 56 57 57 59 60 61 62 62 63 64 64 64 66 68 70 71 73 74 77 79 80 81 82 83
52 51 51 47 45 48 50 50 50 51 51 51 49 49 50 50 51 51 51 51 50 50 50 50 51 52 52 51 50 50 50 51 50 50 49 48 48 49 50 51 51 52 53 54 55 54 54 55 56 56 57 57 56 55 56 57 57 57 57 58 58 59 60 61 63 65 66 67 68 68 69 70 71 72 73 74 74 74 76 79 83 85 85 86 87
55 54 56 53 47 47 50 51 51 51 51 51 50 49 50 51 52 52 51 52 52 52 53 52 52 53 54 54 54 54 54 55 55 54 54 53 53 53 54 54 55 55 55 56 56 57 57 58 59 58 59 60 60 59 59 59 59 60 60 61 62 63 65 66 68 69 70 71 72 73 73 74 75 75 76 77 76 75 77 83 88 91 91 90 89
58 59 63 62 55 50 51 52 53 52 51 50 50 50 50 51 52 53 53 54 54 55 57 58 57 57 56 56 56 56 56 57 57 57 56 55 55 54 55 55 56 56 57 57 59 60 60 61 61 61 62 63 63 63 62 61 61 62 62 64 66 67 70 72 73 74 74 75 75 75 76 77 78 79 80 81 82 83 85 88 92 94 93 91 89
63 63 66 67 63 58 56 55 55 54 54 52 51 51 52 52 52 53 54 55 57 59 61 64 64 62 59 58 57 55 55 55 55 56 57 57 57 57 57 58 58 59 59 60 61 62 63 63 63 64 66 67 67 66 65 63 63 64 66 67 69 71 74 76 77 78 78 78 78 78 78 79 81 83 85 89 92 93 93 93 93 93 91 90 89
68 66 65 67 67 66 63 60 57 56 55 53 52 52 53 54 54 54 55 56 58 60 63 66 68 66 62 60 59 57 56 55 56 57 58 59 60 60 61 62 62 62 63 64 65 65 66 66 67 68 69 69 68 67 66 66 67 69 70 72 74 76 78 79 79 80 80 80 80 80 82 84 87 90 93 96 97 97 96 95 94 92 91 90 90
72 72 68 66 67 68 67 64 61 58 56 56 56 56 55 56 56 56 56 57 57 59 63 66 69 68 66 63 62 60 60 59 59 60 60 61 63 64 65 65 66 66 67 67 68 68 68 68 69 70 70 70 69 69 70 71 73 74 75 76 78 79 80 80 81 81 81 82 83 85 88 91 95 98 99 100 99 98 97 95 93 92 91 91 91
74 77 75 70 68 69 69 67 65 62 60 60 61 61 60 60 60 60 60 59 59 60 63 65 67 68 67 65 64 64 64 64 64 63 64 65 66 68 68 68 69 69 70 70 69 69 69 70 71 72 72 73 73 74 75 76 77 78 79 79 80 80 81 81 82 83 83 85 88 91 95 98 101 102 102 101 100 98 96 94 93 93 92 93 93
73 77 80 77 73 71 70 69 67 65 63 61 61 62 63 63 64 65 65 64 63 63 65 66 66 67 66 65 65 65 66 66 67 67 68 69 70 70 70 70 71 71 70 70 70 70 71 72 73 75 76 77 77 77 78 78 79 80 80 80 80 81 82 84 85 87 89 92 96 99 101 103 103 103 102 101 99 97 95 94 94 94 95 95 97
73 76 80 81 80 77 75 73 70 68 67 64 63 63 64 65 67 68 68 68 67 67 68 68 67 67 67 67 67 68 68 69 70 70 70 70 71 71 71 71 71 71 71 71 71 72 74 75 76 78 78 79 79 79 79 80 80 80 80 81 82 85 87 90 91 93 96 99 102 104 105 105 105 103 101 99 97 96 96 96 96 97 98 99 101
73 76 78 80 81 81 80 79 77 74 72 70 68 67 67 68 70 71 73 73 73 72 72 72 71 71 71 71 71 72 72 72 72 71 71 71 71 71 71 71 71 72 72 73 74 75 77 78 79 79 80 80 80 80 80 80 81 81 83 86 89 92 94 95 97 100 103 105 106 107 107 106 105 103 101 99 98 97 98 99 100 101 102 103 105
73 75 77 79 80 81 82 82 82 81 79 76 73 71 69 69 71 73 75 76 76 75 75 75 74 74 74 74 74 75 74 74 73 73 73 73 72 72 73 73 74 75 76 77 78 78 79 80 80 80 80 80 80 81 82 83 85 88 91 94 96 98 99 101 104 106 107 108 108 108 107 107 105 103 102 101 100 100 101 102 104 105 106 107 108
75 76 77 78 80 81 82 83 84 84 84 83 80 77 74 72 73 73 75 77 77 77 77 77 76 76 76 77 76 76 76 75 74 74 74 74 75 75 75 76 77 78 79 79 80 81 81 81 81 81 81 81 83 85 88 91 94 96 98 100 101 103 105 108 110 110 110 110 109 108 107 107 106 105 104 104 104 104 105 106 108 108 109 109 109
77 78 78 79 80 81 83 84 85 85 86 86 85 83 81 79 77 77 77 78 78 79 79 79 78 78 78 78 79 78 78 77 77 76 77 77 78 78 79 79 80 81 81 82 83 83 83 84 84 85 86 88 91 94 96 98 100 101 103 105 107 109 110 112 112 112 111 110 109 108 107 107 107 107 107 107 107 108 109 110 110 110 110 110 109
79 80 80 80 81 82 83 84 85 86 87 87 88 87 86 85 84 83 82 82 82 82 82 81 81 81 80 81 81 80 80 80 80 80 80 81 81 81 82 82 83 83 84 84 85 87 88 90 91 92 94 96 98 100 101 103 104 106 108 110 112 113 113 113 112 112 111 111 110 110 109 109 109 109 109 109 110 110 110 110 110 110 110 109 108
81 81 82 83 84 84 84 85 86 87 87 88 88 88 88 88 88 88 87 86 86 85 85 85 85 84 84 84 84 84 83 83 83 83 84 84 85 85 86 86 87 88 89 90 91 93 94 96 97 98 99 101 103 105 106 108 109 111 112 113 114 114 114 114 113 114 114 113 112 111 111 110 110 111 111 111 111 110 110 110 109 108 107 106 105
83 84 84 85 86 87 87 87 88 88 88 89 89 89 90 90 90 90 90 89 89 89 88 88 89 89 89 89 89 89 89 89 89 89 89 90 90 91 91 92 93 94 95 96 97 98 99 100 101 102 104 106 108 109 111 112 113 114 114 115 115 115 115 115 116 116 115 114 112 112 112 112 112 112 112 111 110 109 108 108 106 104 103 101 100
85 87 87 87 88 89 90 90 90 90 91 91 91 92 92 92 92 92 92 91 92 92 92 92 93 93 93 93 94 94 94 94 95 95 95 96 96 96 97 97 98 99 100 101 102 103 104 105 106 107 108 110 111 113 114 115 115 115 116 116 116 116 117 117 117 116 115 114 113 113 113 113 113 113 112 111 109 108 106 104 102 100 98 96 94
84 88 90 90 90 91 92 92 93 93 94 94 95 95 96 95 95 95 94 95 95 95 96 96 97 97 98 98 98 99 99 99 100 100 100 101 101 101 102 103 103 104 104 105 106 107 108 109 110 111 112 113 114 115 116 117 117 117 118 118 118 117 117 116 115 114 114 114 115 115 115 115 114 112 111 109 107 104 102 99 96 94 92 90 88
82 86 91 93 94 94 94 95 95 95 96 96 97 98 98 98 98 98 98 99 100 100 100 100 100 101 101 102 102 103 103 104 104 104 105 105 105 106 106 107 107 108 108 109 110 111 112 113 114 115 116 116 117 117 118 118 119 119 119 119 118 116 115 114 113 114 114 115 116 116 115 114 112 110 108 105 102 99 96 94 91 88 86 84 82
79 83 88 92 95 97 98 98 98 98 98 98 99 100 100 100 100 100 101 102 102 103 103 103 104 104 104 105 105 106 106 107 107 107 107 108 108 108 109 109 110 110 111 112 113 114 115 116 117 118 118 118 119 119 119 119 119 119 119 117 116 115 114 114 114 115 115 115 115 114 113 111 109 106 103 99 96 94 91 88 85 82 80 78 76
79 81 84 88 92 95 98 100 101 101 101 101 102 102 103 102 102 102 102 102 102 103 104 105 106 106 107 107 107 108 108 108 108 108 109 109 110 110 111 112 113 114 115 116 117 117 118 119 119 119 120 120 120 120 120 119 118 117 116 115 115 115 115 115 115 114 114 113 112 111 109 107 103 100 97 94 91 88 85 82 79 77 75 73 71
80 81 83 85 88 92 95 98 100 101 103 104 105 105 106 106 106 105 105 104 104 105 106 107 107 107 108 108 108 109 109 110 110 110 111 111 112 113 114 115 116 117 117 118 119 119 119 120 120 121 121 121 120 119 118 117 116 115 115 115 115 115 114 114 114 113 113 112 110 107 104 101 97 94 91 88 85 82 79 76 74 72 70 68 66
83 83 84 85 87 89 91 93 96 99 101 104 106 107 108 108 108 109 108 108 108 109 110 109 108 108 109 110 110 111 111 111 112 112 113 114 114 115 116 117 118 118 119 120 120 121 121 121 121 120 120 119 118 117 116 115 115 115 115 114 114 113 113 113 113 112 111 108 105 102 98 95 91 88 86 83 80 77 74 71 69 67 66 64 62
85 85 86 87 88 89 90 91 92 95 98 101 103 105 106 108 109 110 110 110 111 113 113 113 112 112 113 113 114 114 114 115 115 115 116 116 117 118 118 119 120 120 121 121 121 121 120 119 118 117 116 116 115 115 115 115 115 114 114 113 113 113 113 112 111 109 106 103 99 96 92 89 86 83 80 77 74 72 69 67 65 64 62 60 59
86 87 88 89 89 90 91 91 92 93 95 98 100 101 103 104 106 107 108 109 110 112 113 114 114 115 116 116 117 117 118 118 118 119 119 119 119 120 120 120 120 120 119 119 118 117 116 116 115 115 115 115 115 115 114 114 113 113 113 113 113 112 111 109 106 103 100 97 93 90 86 83 80 77 75 72 70 68 65 63 62 61 60 58 56
87 88 89 90 91 91 92 92 93 94 96 97 98 99 100 101 102 103 105 106 107 108 110 111 112 113 114 115 116 116 117 117 117 117 117 117 117 117 117 116 116 115 115 115 114 114 114 114 114 114 114 114 113 113 113 113 113 112 112 111 110 108 106 103 100 97 94 90 87 84 80 77 75 72 70 68 66 64 62 60 59 58 57 56 54
88 89 89 90 91 92 93 94 95 96 97 98 99 99 99 100 100 101 102 103 104 105 106 106 107 108 109 110 111 112 112 112 112 112 112 112 112 112 112 112 112 113 113 113 114 114 114 114 113 113 113 112 112 112 112 112 111 110 109 107 105 102 100 97 93 90 87 84 81 78 75 72 70 68 66 64 63 62 60 58 56 56 55 54 53
89 90 91 91 92 92 93 95 96 97 98 98 99 99 100 100 100 101 102 103 103 104 105 105 106 106 107 108 108 109 109 109 109 109 109 110 110 111 111 111 112 112 112 113 113 113 113 113 112 112 112 111 111 111 110 109 107 105 104 101 99 96 93 90 86 83 80 77 75 72 70 68 66 64 63 61 60 59 58 56 55 53 52 52 51
88 89 91 92 92 93 94 96 97 98 98 99 99 100 100 101 101 102 102 103 104 104 105 105 105 106 106 107 108 108 109 109 109 110 110 110 111 111 111 112 112 112 112 112 112 112 112 112 111 111 110 110 109 107 106 104 102 100 97 95 92 89 86 82 79 77 74 72 70 68 66 65 64 62 60 58 57 57 56 55 53 52 50 49 48
86 88 89 91 92 93 94 96 98 98 98 99 99 100 100 101 102 102 103 104 105 105 105 106 106 107 107 108 108 109 109 110 110 111 111 111 111 112 112 112 112 112 112 112 112 112 111 110 109 108 107 106 104 102 100 98 96 93 90 87 84 81 79 76 74 72 70 68 66 65 63 62 61 59 58 56 55 54 54 53 52 50 49 47 46
84 86 88 89 90 92 93 95 97 98 98 99 100 100 100 101 102 103 103 104 105 105 106 106 107 107 108 108 109 109 110 110 110 111 111 111 111 111 111 111 111 111 111 111 111 110 108 107 105 104 102 100 98 96 94 91 88 86 83 80 78 75 73 71 69 68 66 65 63 62 61 60 58 57 56 54 53 52 51 51 50 48 47 45 44
77 80 84 86 88 90 92 94 95 96 97 97 98 99 100 101 102 103 103 104 105 105 106 106 107 107 108 108 109 109 109 110 110 110 110 110 110 110 110 110 110 109 108 108 106 105 103 101 100 98 96 94 91 89 86 84 81 79 77 75 73 71 69 67 66 65 63 62 61 60 58 57 56 55 54 53 51 50 49 48 48 47 45 43 42
70 73 76 80 83 86 88 91 93 95 95 95 96 96 97 98 99 101 102 103 103 104 105 106 106 107 107 107 108 108 108 108 108 108 108 108 108 107 106 106 105 104 103 102 101 99 98 96 94 91 89 87 84 82 80 78 75 74 72 71 69 67 66 64 63 62 61 59 59 58 56 55 54 53 52 51 50 49 48 46 45 44 43 42 40
63 66 69 71 74 78 81 84 87 90 92 93 94 94 95 96 97 98 99 100 101 102 102 103 104 104 105 105 105 105 105 105 105 105 104 104 103 102 102 101 100 99 98 97 96 94 92 90 88 85 83 80 78 76 74 72 71 69 68 66 65 64 63 62 61 59 58 57 56 55 54 53 52 51 51 50 49 47 46 45 44 43 42 40 39
58 60 62 64 67 69 72 75 78 81 84 86 88 90 91 93 94 95 96 97 98 99 100 101 101 101 102 102 102 102 102 102 102 101 101 100 99 99 98 97 96 95 94 92 91 89 87 85 82 79 77 75 73 72 70 68 67 65 64 63 62 61 60 59 58 57 55 54 53 53 52 52 51 50 49 48 48 47 45 44 43 42 40 39 38
54 56 57 59 60 62 65 67 69 72 74 76 79 81 83 86 88 90 91 93 94 95 96 97 97 97 98 98 98 98 98 98 98 98 97 96 95 94 93 92 91 90 88 86 84 82 81 79 76 74 72 70 69 68 66 65 63 62 61 60 60 59 58 57 56 55 54 52 51 51 50 50 49 49 48 47 46 45 45 43 42 41 40 38 37
Wind_Direction
245 241 240 244 248 251 253 254 256 256 256 256 256 258 261 263 262 260 261 263 265 264 263 262 264 265 266 268 268 269 268 269 272 273 275 277 280 283 285 287 289 290 293 296 298 301 302 302 301 300 297 293 290 286 281 279 280 281 281 281 280 279 279 280 281 282 284 285 287 287 286 286 285 283 284 288 291 293 294 293 292 291 291 290 290
254 250 244 244 248 250 251 252 253 255 258 259 259 258 259 260 261 260 261 264 265 265 264 264 265 265 265 265 267 268 268 269 271 273 275 278 280 282 284 285 287 289 292 296 298 300 301 301 300 298 295 291 286 282 279 278 279 280 281 281 280 280 281 281 281 282 284 285 286 285 285 285 284 284 286 289 292 294 294 294 293 292 292 292 291
253 258 253 250 251 251 249 249 251 253 256 259 259 258 257 257 259 260 262 266 266 266 266 267 267 267 267 267 267 269 269 270 272 273 275 278 280 282 283 283 286 289 292 295 297 299 300 300 299 296 293 289 284 281 280 279 280 282 282 282 282 284 285 285 285 284 284 284 285 286 286 285 284 284 287 289 290 292 292 291 291 292 292 292 292
248 253 253 248 245 245 245 247 250 252 254 256 256 256 257 258 259 261 263 266 267 266 267 268 269 269 270 270 270 270 271 271 272 274 276 279 280 281 282 284 286 290 292 294 296 298 299 299 297 294 292 288 285 282 281 280 281 283 283 283 284 286 288 289 288 285 284 284 286 287 286 285 284 284 285 287 288 288 289 289 291 292 292 292 291
247 247 246 239 234 239 242 243 247 251 253 254 255 255 256 257 259 262 264 266 265 264 264 265 267 268 269 270 271 271 272 272 273 275 277 279 280 281 282 284 287 289 291 293 295 297 298 298 296 294 292 290 286 283 281 281 282 283 283 283 284 286 289 289 287 284 282 283 285 286 284 284 285 284 283 284 286 287 288 290 291 292 293 292 290
240 242 243 241 237 241 243 241 245 252 253 252 253 254 255 256 257 260 262 263 263 262 262 263 264 266 267 267 267 268 270 272 274 276 278 279 279 280 282 284 286 288 289 291 294 295 297 297 296 295 293 290 287 283 282 282 283 284 283 281 282 284 286 286 285 283 281 281 283 284 283 284 285 285 286 285 286 289 291 293 293 291 291 291 290
237 241 243 243 241 243 244 239 242 251 253 250 250 252 254 255 256 258 260 262 264 265 265 265 265 264 264 264 264 265 267 269 272 274 276 277 278 279 281 283 285 286 288 290 292 294 296 297 296 295 293 289 287 285 284 284 286 286 284 283 283 284 284 284 285 285 284 283 283 284 285 285 285 287 289 289 290 291 291 293 295 293 293 295 296
238 241 242 239 237 240 242 239 240 246 247 246 248 250 252 254 256 258 260 262 264 266 266 266 265 263 263 263 264 265 267 269 271 273 274 275 276 278 279 281 283 285 287 290 292 294 296 296 295 293 292 290 290 290 288 288 289 288 286 287 288 288 288 289 289 290 290 288 287 287 287 288 288 290 292 293 294 295 294 296 298 298 299 301 303
242 245 241 235 234 238 241 239 240 244 246 246 247 249 251 254 256 257 260 261 263 264 264 263 262 262 263 265 267 268 269 270 270 271 272 273 274 276 278 280 282 284 287 290 292 294 295 294 293 292 292 292 293 294 293 291 289 288 288 290 293 295 296 296 296 296 294 292 291 290 290 290 292 294 294 294 295 297 299 300 300 300 300 303 304
247 248 242 237 238 241 242 241 242 246 247 246 247 250 254 256 255 255 257 259 260 261 262 262 262 263 265 267 268 268 267 267 268 269 270 271 272 274 276 279 283 286 289 291 292 293 293 293 292 293 293 294 295 295 294 290 286 287 292 296 298 300 300 301 301 301 299 297 295 294 294 294 295 295 296 296 297 298 300 301 301 301 302 303 303
246 246 239 234 236 240 242 241 241 243 245 246 246 250 255 257 256 256 256 257 259 261 262 264 264 264 265 265 265 264 264 265 266 268 269 270 272 274 278 282 285 287 289 290 290 291 291 292 293 293 293 293 294 295 293 288 285 290 297 300 301 301 302 303 304 305 304 303 300 297 297 298 298 297 297 297 298 300 300 300 301 301 302 303 302
240 236 228 223 226 233 237 237 237 237 242 247 248 248 252 256 259 259 259 259 260 262 262 262 262 262 262 263 263 264 265 266 267 268 270 272 274 277 281 284 285 287 288 288 288 290 290 292 294 294 293 293 294 296 295 292 290 294 298 300 300 301 303 304 305 306 306 304 301 298 298 299 299 299 298 299 299 300 301 302 302 302 303 302 302
231 223 218 217 220 225 230 234 235 235 238 246 250 250 251 255 257 258 259 260 260 260 258 257 258 259 260 262 263 265 266 268 269 271 273 275 277 279 282 283 284 285 285 286 288 289 291 294 294 293 293 294 294 296 298 297 296 296 297 298 300 302 304 305 306 306 305 304 302 301 301 302 302 302 302 302 302 303 303 303 303 303 303 302 302
224 217 215 217 219 221 224 228 230 232 235 241 247 249 251 254 255 256 257 257 257 255 253 253 254 257 259 262 264 265 267 269 271 273 275 277 278 280 281 282 282 283 284 286 288 290 292 294 293 293 294 294 294 297 298 297 296 296 297 299 301 302 303 305 306 305 305 305 304 304 304 304 304 303 303 303 302 302 302 302 302 301 301 300 300
221 217 214 217 221 222 223 225 227 230 234 239 243 246 250 253 254 255 255 254 253 251 250 251 253 256 259 261 263 265 267 269 271 273 275 277 278 279 280 280 281 283 285 286 289 291 293 294 294 295 295 294 295 296 296 295 295 296 297 299 301 302 303 304 304 305 305 305 305 304 303 303 302 300 300 300 300 301 301 300 299 297 297 297 297
222 218 214 214 218 220 222 224 228 231 235 238 242 245 249 250 251 252 252 251 250 249 249 250 252 255 257 259 262 265 267 269 270 272 274 276 277 278 279 280 282 284 285 288 290 291 292 293 294 295 294 295 296 295 294 294 295 296 297 299 300 302 303 303 303 304 304 304 303 302 301 300 299 298 297 297 298 299 299 297 295 295 296 296 296
220 218 214 211 213 217 219 222 225 229 232 236 239 243 247 249 249 249 248 248 248 248 249 250 253 256 258 260 262 264 266 268 270 272 274 275 277 278 280 282 283 285 287 288 290 291 291 292 293 293 293 294 295 294 294 295 296 297 298 299 300 301 301 301 302 302 301 301 300 300 299 298 298 297 297 296 296 297 296 294 294 296 297 297 296
217 217 216 213 212 215 218 219 222 225 229 233 237 241 245 248 250 250 249 249 249 249 250 252 254 256 259 262 265 267 269 270 272 273 274 276 277 279 281 282 284 285 286 288 289 290 290 291 291 291 292 293 294 295 296 297 298 298 298 298 299 299 299 300 300 300 299 299 298 298 298 297 297 297 297 297 297 297 296 295 295 296 296 297 296
215 217 219 217 215 217 220 221 223 226 230 234 237 240 243 246 249 252 253 253 253 253 254 255 255 255 258 261 265 268 270 272 273 274 275 276 277 279 280 281 282 283 285 286 287 288 288 288 289 291 293 294 296 297 298 297 295 295 295 296 296 297 297 297 297 297 298 297 297 297 297 297 297 297 298 298 299 299 299 298 297 297 297 298 297
215 216 220 220 219 220 222 223 224 228 231 234 236 238 241 243 247 250 252 254 255 256 256 257 257 256 257 260 263 266 268 270 272 274 275 276 278 278 279 280 282 283 284 285 286 286 287 288 290 292 294 296 296 296 294 293 292 292 293 294 294 295 295 296 296 296 297 297 297 297 297 298 298 298 298 299 299 300 300 300 299 299 299 299 298
217 217 219 221 221 222 223 223 225 227 231 234 235 236 239 243 246 249 251 252 254 256 256 258 259 259 258 259 262 265 267 269 271 272 274 276 278 279 280 281 282 283 284 286 287 287 288 290 292 293 294 294 293 291 291 290 291 291 292 293 293 294 295 295 296 296 296 296 296 297 297 298 298 299 299 299 300 300 300 300 299 299 298 298 298
219 219 220 221 222 223 225 225 225 227 231 235 237 239 240 243 246 247 248 249 252 254 257 259 262 263 263 263 263 265 266 268 270 272 273 275 277 279 281 282 283 285 286 287 288 288 289 290 291 292 292 291 290 289 289 290 290 291 291 292 293 294 294 295 295 295 295 295 296 296 297 298 298 299 299 300 300 301 300 299 298 298 298 297 298
221 221 222 222 223 224 226 226 227 228 230 234 238 241 243 245 247 248 249 250 251 254 257 260 262 264 266 266 266 266 267 269 270 272 274 276 278 279 281 283 284 285 286 287 287 288 288 289 289 289 289 289 289 289 289 289 289 290 291 291 292 293 293 294 294 294 295 295 296 296 297 297 298 299 299 300 300 299 298 297 297 297 297 297 298
223 223 223 224 225 226 227 228 228 229 230 233 237 240 243 245 247 248 249 250 250 253 256 258 260 263 265 267 267 268 268 269 270 272 274 276 278 279 281 282 283 284 285 285 286 286 286 287 287 287 288 288 288 288 288 288 288 288 289 290 291 292 292 293 293 294 294 295 296 297 297 298 298 299 299 299 299 298 297 297 296 296 296 297 297
225 225 225 225 226 227 228 229 230 230 231 233 236 240 243 246 248 250 251 252 252 253 256 258 259 262 264 266 267 268 269 270 272 273 275 276 277 279 280 281 281 282 282 283 283 283 284 285 285 286 286 287 287 287 286 286 286 287 288 289 290 291 292 292 293 294 295 295 296 297 297 298 299 299 299 299 298 297 297 296 296 296 296 296 296
226 226 226 227 227 229 230 231 231 231 232 233 235 238 241 245 249 251 253 254 255 256 258 259 261 262 264 265 267 268 270 271 273 274 275 276 277 278 278 279 280 280 281 281 281 282 283 283 284 284 284 284 284 284 284 284 285 286 288 289 290 291 291 292 293 294 295 296 296 297 298 299 300 300 300 299 298 297 297 296 295 296 296 296 296
227 228 228 228 228 229 230 232 233 233 233 234 235 236 239 242 246 249 252 254 256 257 258 260 261 263 264 266 267 268 270 271 272 273 274 275 275 276 276 277 278 279 279 280 281 281 282 282 282 281 281 281 281 281 282 283 285 287 288 289 290 291 292 293 294 295 296 297 298 298 299 299 299 299 299 298 297 297 297 296 296 297 297 297 297
229 229 229 229 229 230 231 232 233 234 235 236 236 237 238 240 243 246 249 251 253 255 257 258 260 262 263 265 266 268 269 270 270 271 272 273 274 274 275 275 276 277 277 278 279 279 280 280 280 280 280 280 280 281 283 285 286 287 288 289 291 292 293 294 295 296 297 298 298 298 298 298 298 297 297 297 297 297 297 297 297 298 298 298 297
230 231 231 231 231 231 231 232 233 235 236 237 238 239 240 241 242 244 246 249 251 253 255 257 258 260 262 263 265 266 267 268 269 270 271 271 272 273 273 274 274 275 276 276 277 277 278 279 279 280 280 281 282 283 284 286 287 288 289 290 291 292 293 294 295 296 297 297 297 297 297 297 296 296 296 297 297 297 297 298 298 298 298 298 297
230 232 233 233 233 234 234 234 234 235 237 238 240 241 242 243 244 246 247 249 251 253 255 257 258 259 261 262 263 264 265 266 267 268 269 270 270 271 272 272 273 274 275 275 276 277 278 279 279 280 281 282 283 284 285 287 288 289 290 291 292 293 294 295 295 296 296 296 296 296 296 296 296 296 296 297 297 298 298 298 298 298 298 297 296
230 232 233 234 235 235 236 236 236 237 238 239 241 242 243 245 246 247 249 250 252 254 255 257 258 259 260 262 263 264 265 266 267 268 269 269 270 271 272 273 274 274 275 276 277 277 278 278 279 280 281 282 284 285 287 288 289 290 291 291 292 293 294 294 294 295 295 295 295 295 295 295 296 297 298 298 299 299 299 299 298 297 296 296 295
231 231 233 234 236 237 237 238 238 239 239 240 241 242 244 245 247 248 250 251 252 254 255 256 258 259 260 261 262 263 264 266 267 268 269 270 271 272 273 273 274 275 276 276 277 278 278 279 280 281 282 283 285 286 287 288 289 289 290 291 292 292 293 293 294 294 295 295 295 295 296 296 297 298 299 299 299 299 299 298 297 296 296 295 294
233 233 233 234 235 237 238 239 240 240 241 242 242 244 245 246 247 248 250 251 253 254 255 256 257 259 260 261 262 263 264 265 266 267 269 270 271 272 273 273 274 275 276 277 277 278 279 280 281 282 283 284 285 286 287 287 288 289 290 290 291 292 292 293 293 294 294 295 296 296 297 298 298 299 299 299 299 299 298 297 296 296 295 295 294
235 235 235 235 236 237 238 239 240 241 242 243 244 245 246 247 248 249 250 251 253 254 255 257 258 259 260 262 263 264 265 266 267 268 269 270 271 272 272 273 274 275 276 277 278 279 280 280 281 282 283 284 285 286 286 287 288 289 290 290 291 292 292 293 293 294 294 295 296 297 297 298 299 299 299 299 299 298 298 297 297 296 296 295 295
236 236 236 237 237 238 239 240 241 242 243 244 245 246 247 247 248 249 251 252 253 255 256 257 258 260 261 262 263 264 265 266 267 268 269 270 270 271 272 273 274 275 276 277 278 279 280 280 281 282 283 284 285 285 286 287 288 289 289 290 291 292 292 293 293 294 295 295 296 297 298 299 299 299 299 299 299 298 298 297 297 297 296 295 295
237 238 238 238 239 239 240 240 241 242 243 245 246 247 247 248 249 250 251 252 254 255 256 258 259 260 261 262 263 264 265 266 267 268 269 270 270 271 272 273 274 275 276 277 278 279 279 280 281 282 283 284 285 285 286 287 287 288 289 290 291 292 293 293 294 295 295 297 298 299 299 299 299 299 299 299 299 298 298 298 297 296 295 294 294
239 239 239 240 240 241 241 242 242 243 244 245 246 247 248 249 249 250 251 252 253 254 255 257 258 259 261 262 263 264 265 266 267 268 269 270 271 272 272 273 274 275 276 277 278 278 279 280 281 282 283 284 284 285 286 287 288 288 289 290 291 292 293 294 295 296 297 298 299 299 299 299 299 299 299 299 298 298 298 297 297 296 295 294 293
241 241 241 241 241 242 242 243 243 244 245 245 246 247 248 249 250 251 251 252 253 254 254 255 257 258 259 261 262 263 264 265 266 267 268 269 270 271 272 273 274 275 276 277 278 278 279 280 281 282 283 284 284 285 286 287 288 289 290 291 292 293 294 296 297 298 298 299 299 299 299 299 300 300 299 299 298 298 298 297 296 295 295 294 294
242 243 243 243 243 243 243 243 244 245 246 247 247 248 249 250 250 251 252 253 254 255 256 256 257 258 259 260 261 262 263 264 265 266 267 268 269 270 271 272 273 274 276 277 278 278 279 280 281 282 283 284 285 286 287 288 289 290 291 293 294 295 296 297 297 298 298 298 299 299 299 299 299 299 299 298 298 298 298 297 296 296 295 295 295
244 244 244 245 245 245 245 245 245 245 246 247 248 249 249 250 251 252 253 254 254 256 257 258 258 259 260 260 261 262 263 264 265 266 267 268 269 270 271 272 273 274 275 276 277 278 279 280 281 282 283 284 285 286 288 289 290 291 292 294 295 296 296 297 297 298 298 298 299 299 299 299 299 298 298 298 298 298 298 297 297 297 296 296 296
246 245 245 246 246 247 247 247 247 247 247 248 249 249 250 251 252 252 253 254 255 256 257 258 259 260 260 261 262 263 264 265 266 267 268 268 269 270 271 272 273 274 275 276 277 278 279 280 282 283 284 285 286 288 289 290 291 292 293 294 295 296 296 297 297 297 298 298 298 298 298 298 298 298 299 299 298 298 298 298 298 297 297 297 296
247 247 247 247 247 247 248 248 249 249 250 250 250 251 251 252 252 253 254 254 255 256 257 258 259 260 261 262 263 263 264 265 266 267 268 269 270 271 272 273 274 275 276 277 278 279 281 282 283 284 285 286 287 289 290 291 292 293 294 295 295 296 296 296 297 297 297 297 297 298 298 298 298 299 299 299 299 299 299 299 298 298 298 297 297
247 248 248 248 248 248 249 249 249 250 250 251 252 253 253 254 254 255 255 256 257 257 258 259 259 260 261 262 263 264 265 266 267 268 269 270 271 272 273 274 275 276 277 279 280 281 282 283 284 285 286 287 288 289 290 292 293 294 294 295 295 295 295 296 296 296 297 297 297 298 298 299 299 299 299 299 299 299 299 299 299 298 298 297 296
248 248 248 249 249 249 249 250 251 251 251 251 252 253 254 255 255 256 257 257 258 259 260 260 261 262 263 264 265 266 267 268 269 270 271 272 272 273 274 275 276 277 278 279 280 281 282 283 284 286 287 288 289 290 291 292 293 294 294 294 294 295 295 295 296 296 296 297 298 298 299 299 299 299 299 300 300 299 299 299 299 298 297 296 295
249 249 250 250 250 250 250 251 251 252 252 253 253 253 254 255 255 256 257 258 259 260 260 261 262 263 264 265 266 267 268 269 269 270 271 272 273 274 275 276 277 278 279 280 281 282 283 285 286 287 288 289 290 291 292 292 293 293 293 293 294 294 295 295 296 296 297 298 298 299 299 299 299 300 300 300 300 299 299 299 298 298 297 296 295
249 249 250 251 251 251 252 252 252 252 252 253 254 254 255 255 256 257 257 258 259 260 261 262 262 263 264 265 266 266 267 268 269 270 271 272 273 274 275 276 277 279 280 281 282 283 285 286 287 288 289 290 290 291 292 292 293 293 293 293 294 294 295 296 296 297 297 298 299 299 299 299 299 300 300 300 299 299 299 299 298 297 296 295 294
250 250 250 250 251 251 252 253 254 254 254 254 254 255 255 256 256 257 258 259 259 260 261 262 263 263 264 265 266 267 268 269 270 271 272 273 274 275 276 277 278 280 281 282 283 284 285 286 287 288 289 290 290 291 291 292 292 292 293 293 294 294 295 296 296 297 298 298 299 299 299 299 299 299 299 299 299 299 299 298 297 296 295 294 293
253 252 251 251 251 251 252 252 253 255 255 256 256 256 256 257 257 258 258 259 260 261 262 262 263 264 265 266 267 268 269 270 271 272 273 274 275 276 277 279 280 281 282 283 284 285 286 287 288 288 289 290 290 290 291 291 292 292 293 293 294 294 295 296 296 297 298 298 299 299 299 299 299 299 299 299 299 299 298 297 296 295 294 294 293
256 255 254 253 253 253 252 252 253 254 255 256 257 257 258 258 259 259 259 260 261 261 262 263 264 265 266 267 268 269 270 271 272 273 274 275 276 278 279 280 281 282 283 284 285 285 286 287 288 288 289 289 290 290 290 291 291 291 292 292 293 294 295 296 296 297 298 298 298 298 298 298 298 298 299 299 299 299 298 297 296 295 294 293 293
258 257 257 256 256 255 255 254 254 255 255 256 256 257 258 258 259 259 260 261 261 262 263 263 264 265 266 267 268 269 271 272 273 274 275 276 277 278 279 280 281 282 283 284 284 285 286 286 287 287 288 288 289 289 290 290 291 291 292 292 293 294 295 295 296 296 297 297 297 297 297 297 298 298 298 299 299 298 298 297 296 295 294 293 293
260 260 259 258 258 257 257 257 256 257 257 257 257 257 257 258 258 259 260 260 261 262 263 264 265 266 267 268 269 270 271 272 273 274 275 276 277 278 279 280 280 281 282 283 284 284 285 285 286 286 287 288 288 289 289 289 290 291 291 292 293 293 294 295 295 296 296 296 296 296 296 297 297 298 298 298 298 298 298 297 296 295 294 293 293
Height
10630 10631 10632 10636 10640 10644 10648 10650 10652 10653 10654 10656 10658 10659 10660 10660 10661 10662 10663 10664 10666 10666 10666 10667 10668 10668 10670 10670 10670 10670 10670 10671 10672 10672 10673 10673 10673 10673 10674 10674 10673 10672 10672 10670 10669 10668 10668 10666 10666 10665 10664 10662 10661 10660 10660 10659 10658 10657 10655 10654 10652 10652 10652 10652 10650 10648 10648 10648 10647 10646 10645 10644 10644 10642 10642 10640 10638 10636 10635 10633 10632 10630 10628 10628 10626
10626 10628 10632 10636 10639 10641 10644 10646 10646 10648 10649 10650 10652 10654 10654 10655 10656 10656 10658 10659 10660 10661 10662 10662 10664 10664 10665 10665 10665 10665 10666 10666 10666 10668 10668 10668 10668 10668 10669 10669 10668 10668 10668 10666 10665 10664 10662 10662 10661 10660 10660 10658 10657 10656 10655 10654 10654 10653 10652 10649 10647 10646 10648 10646 10646 10644 10644 10642 10642 10641 10640 10640 10640 10638 10637 10636 10634 10632 10630 10628 10626 10624 10624 10622 10622
10625 10629 10634 10640 10640 10638 10638 10640 10642 10642 10644 10645 10646 10648 10648 10650 10650 10652 10653 10654 10656 10656 10657 10658 10658 10660 10660 10660 10660 10660 10660 10660 10662 10662 10662 10663 10662 10662 10664 10664 10664 10664 10663 10662 10661 10660 10658 10657 10656 10655 10654 10654 10652 10651 10650 10650 10650 10649 10648 10646 10643 10642 10643 10642 10642 10640 10638 10638 10638 10636 10636 10634 10634 10633 10632 10630 10628 10626 10624 10622 10621 10620 10618 10617 10616
10624 10630 10636 10638 10635 10631 10631 10634 10636 10638 10638 10640 10641 10642 10642 10644 10646 10647 10648 10649 10650 10651 10652 10652 10653 10654 10654 10655 10655 10654 10654 10655 10656 10656 10657 10658 10658 10658 10658 10659 10659 10658 10658 10658 10656 10655 10654 10652 10651 10650 10650 10649 10648 10647 10646 10645 10646 10645 10644 10642 10640 10638 10638 10638 10638 10636 10635 10634 10632 10632 10630 10629 10628 10628 10626 10624 10622 10621 10620 10617 10616 10614 10612 10612 10611
10624 10630 10632 10631 10628 10625 10626 10630 10632 10632 10634 10635 10636 10636 10636 10638 10640 10642 10642 10644 10644 10646 10646 10647 10648 10648 10649 10650 10649 10649 10648 10649 10650 10652 10652 10652 10652 10652 10652 10653 10653 10653 10653 10652 10651 10650 10650 10648 10646 10646 10646 10644 10644 10642 10641 10640 10641 10640 10640 10638 10636 10635 10634 10634 10634 10633 10632 10630 10628 10627 10626 10624 10622 10621 10621 10620 10616 10614 10614 10612 10610 10608 10606 10605 10606
10623 10626 10626 10626 10626 10624 10625 10628 10629 10628 10628 10629 10630 10630 10631 10633 10635 10636 10636 10637 10638 10640 10640 10642 10643 10644 10644 10643 10643 10643 10643 10644 10645 10646 10647 10647 10647 10646 10646 10647 10648 10648 10648 10646 10646 10645 10644 10644 10642 10642 10641 10640 10640 10638 10637 10636 10636 10636 10635 10634 10634 10632 10631 10629 10628 10628 10628 10628 10625 10622 10621 10620 10618 10615 10614 10614 10612 10610 10608 10606 10604 10603 10602 10599 10598
10620 10621 10624 10626 10626 10624 10623 10626 10626 10624 10622 10622 10624 10626 10626 10627 10628 10630 10630 10630 10632 10634 10635 10636 10638 10638 10636 10636 10636 10638 10638 10639 10640 10640 10641 10642 10641 10641 10641 10641 10642 10642 10642 10642 10640 10640 10639 10638 10638 10637 10636 10636 10635 10634 10633 10632 10632 10630 10629 10628 10629 10629 10628 10626 10624 10622 10622 10622 10620 10618 10616 10614 10614 10612 10609 10606 10606 10606 10605 10602 10598 10597 10596 10593 10591
10614 10616 10620 10624 10622 10620 10620 10622 10624 10620 10616 10616 10619 10620 10622 10622 10622 10624 10624 10626 10628 10628 10630 10631 10631 10630 10630 10630 10631 10632 10634 10634 10634 10634 10635 10636 10635 10635 10635 10636 10636 10637 10637 10636 10635 10634 10634 10634 10632 10632 10631 10630 10630 10630 10629 10628 10628 10626 10624 10622 10622 10624 10624 10622 10620 10618 10616 10614 10614 10612 10610 10608 10608 10608 10607 10603 10600 10600 10599 10597 10594 10592 10590 10586 10583
10610 10612 10617 10618 10617 10616 10616 10618 10620 10616 10612 10612 10614 10615 10616 10616 10618 10618 10620 10622 10623 10624 10624 10625 10624 10622 10623 10625 10627 10628 10628 10628 10628 10628 10629 10629 10630 10630 10630 10630 10631 10632 10632 10631 10630 10629 10629 10628 10628 10626 10625 10624 10624 10624 10624 10623 10622 10622 10620 10618 10616 10616 10616 10616 10616 10614 10611 10609 10608 10606 10606 10604 10602 10601 10600 10600 10597 10594 10592 10590 10588 10586 10585 10582 10578
10606 10609 10612 10613 10612 10612 10612 10614 10614 10612 10609 10608 10608 10609 10610 10611 10612 10614 10615 10617 10618 10618 10619 10618 10616 10616 10619 10621 10622 10622 10622 10621 10621 10622 10623 10624 10624 10624 10624 10626 10626 10626 10626 10626 10624 10624 10624 10623 10622 10620 10619 10618 10618 10618 10618 10617 10616 10616 10616 10614 10611 10610 10609 10608 10608 10608 10606 10604 10602 10600 10599 10598 10596 10594 10593 10592 10591 10589 10587 10586 10582 10579 10577 10576 10572
10602 10604 10606 10608 10608 10608 10608 10608 10608 10607 10604 10602 10604 10604 10604 10604 10606 10608 10610 10611 10610 10612 10614 10613 10612 10612 10614 10616 10616 10616 10616 10616 10616 10616 10617 10618 10618 10618 10619 10620 10620 10620 10620 10620 10619 10618 10618 10616 10615 10614 10614 10613 10613 10612 10611 10610 10610 10609 10609 10608 10606 10604 10602 10601 10600 10600 10599 10598 10596 10594 10592 10591 10590 10588 10586 10584 10582 10581 10580 10578 10576 10573 10570 10567 10564
10597 10598 10601 10603 10604 10604 10604 10602 10602 10602 10600 10596 10598 10600 10599 10598 10601 10602 10604 10605 10605 10607 10608 10607 10606 10606 10608 10610 10610 10610 10610 10610 10610 10610 10611 10612 10612 10612 10614 10614 10614 10615 10615 10614 10613 10612 10611 10610 10609 10608 10608 10608 10607 10606 10605 10604 10603 10602 10601 10601 10600 10598 10596 10594 10594 10592 10592 10590 10588 10588 10586 10584 10582 10580 10578 10576 10574 10572 10570 10568 10567 10565 10562 10560 10556
10591 10593 10594 10596 10598 10599 10598 10597 10596 10597 10596 10592 10590 10593 10594 10594 10596 10597 10598 10599 10600 10601 10602 10601 10600 10600 10602 10604 10604 10604 10604 10604 10604 10605 10605 10606 10606 10607 10608 10609 10609 10609 10608 10608 10607 10606 10604 10604 10604 10602 10602 10602 10601 10600 10598 10598 10596 10594 10594 10593 10593 10592 10590 10588 10586 10585 10584 10582 10580 10578 10578 10576 10574 10571 10570 10568 10565 10562 10560 10558 10556 10555 10552 10550 10548
10583 10586 10587 10588 10590 10592 10592 10592 10591 10592 10592 10588 10586 10587 10589 10589 10590 10592 10592 10593 10594 10595 10596 10596 10594 10595 10596 10598 10598 10598 10598 10598 10599 10599 10600 10600 10600 10602 10603 10603 10602 10602 10602 10602 10602 10600 10599 10598 10596 10596 10596 10596 10595 10594 10592 10590 10590 10588 10586 10585 10584 10584 10582 10582 10580 10578 10576 10574 10571 10568 10568 10566 10564 10562 10560 10558 10557 10556 10553 10550 10547 10544 10542 10542 10540
10574 10578 10582 10584 10584 10586 10586 10586 10586 10586 10586 10584 10582 10582 10583 10583 10584 10585 10587 10588 10588 10589 10590 10590 10590 10590 10590 10592 10592 10592 10592 10593 10594 10594 10594 10595 10595 10596 10596 10596 10596 10596 10596 10596 10596 10594 10594 10592 10590 10588 10586 10586 10588 10588 10585 10584 10583 10581 10580 10578 10576 10574 10574 10573 10571 10569 10567 10565 10562 10560 10558 10558 10556 10554 10553 10551 10550 10549 10546 10542 10538 10535 10534 10534 10533
10569 10574 10578 10579 10579 10578 10580 10580 10580 10581 10580 10578 10578 10578 10577 10577 10578 10580 10581 10582 10582 10583 10584 10584 10584 10584 10584 10586 10586 10586 10587 10587 10588 10588 10589 10589 10589 10589 10590 10590 10590 10590 10589 10589 10589 10588 10587 10585 10584 10582 10578 10576 10580 10581 10579 10577 10576 10574 10572 10570 10568 10566 10564 10563 10562 10560 10558 10556 10554 10552 10550 10549 10548 10547 10545 10544 10543 10544 10540 10533 10526 10524 10525 10525 10522
10564 10568 10570 10572 10572 10572 10573 10574 10574 10574 10574 10572 10572 10572 10571 10572 10572 10574 10574 10575 10576 10576 10576 10577 10578 10578 10578 10579 10580 10581 10581 10581 10582 10582 10582 10582 10582 10582 10582 10582 10582 10582 10582 10582 10582 10580 10580 10578 10576 10575 10572 10570 10570 10572 10572 10570 10568 10566 10564 10562 10560 10558 10556 10554 10553 10552 10550 10548 10546 10545 10543 10540 10538 10536 10535 10532 10534 10537 10534 10524 10516 10514 10514 10513 10510
10558 10560 10561 10563 10565 10565 10565 10566 10567 10567 10567 10566 10567 10567 10566 10566 10566 10566 10568 10570 10570 10570 10569 10569 10571 10572 10572 10573 10574 10574 10574 10574 10574 10575 10575 10576 10576 10576 10576 10576 10576 10576 10576 10575 10574 10572 10572 10570 10569 10568 10566 10564 10563 10563 10563 10562 10560 10558 10556 10554 10552 10550 10548 10546 10545 10544 10543 10541 10539 10537 10534 10532 10529 10526 10524 10521 10521 10524 10524 10518 10510 10505 10503 10500 10498
10551 10552 10552 10556 10559 10558 10558 10560 10560 10561 10560 10561 10562 10562 10562 10562 10562 10562 10562 10563 10562 10562 10561 10560 10562 10566 10568 10568 10568 10568 10568 10567 10566 10567 10568 10568 10569 10570 10570 10570 10570 10570 10569 10568 10568 10566 10564 10563 10562 10560 10558 10556 10555 10554 10554 10553 10552 10550 10548 10546 10545 10543 10540 10538 10536 10535 10534 10532 10530 10528 10525 10522 10519 10516 10513 10510 10508 10508 10507 10504 10498 10494 10490 10486 10482
10543 10544 10546 10549 10552 10552 10552 10554 10556 10556 10556 10556 10556 10556 10556 10556 10556 10556 10556 10556 10554 10554 10553 10552 10553 10558 10562 10564 10563 10563 10562 10562 10560 10560 10560 10560 10560 10562 10562 10562 10562 10562 10562 10562 10560 10558 10557 10556 10554 10552 10550 10548 10547 10546 10545 10544 10543 10542 10541 10540 10538 10536 10533 10530 10528 10526 10523 10520 10518 10516 10514 10512 10508 10506 10502 10499 10496 10493 10490 10487 10483 10479 10476 10472 10467
10534 10536 10538 10542 10544 10545 10546 10548 10550 10550 10550 10549 10549 10550 10550 10550 10549 10549 10548 10548 10548 10546 10544 10544 10545 10549 10554 10558 10558 10557 10556 10555 10554 10554 10553 10552 10553 10554 10554 10554 10554 10554 10554 10554 10552 10550 10548 10546 10544 10544 10542 10541 10540 10538 10537 10536 10534 10534 10532 10532 10530 10528 10524 10522 10520 10517 10514 10512 10508 10506 10503 10500 10497 10494 10490 10488 10484 10481 10478 10472 10468 10466 10462 10458 10454
10526 10529 10532 10534 10536 10538 10539 10541 10542 10544 10544 10543 10543 10544 10544 10543 10542 10541 10540 10540 10540 10539 10538 10538 10538 10540 10545 10549 10550 10550 10549 10548 10548 10547 10547 10547 10546 10546 10546 10546 10546 10546 10546 10545 10543 10540 10538 10538 10536 10536 10534 10533 10532 10530 10528 10528 10526 10524 10524 10522 10520 10518 10516 10512 10510 10508 10506 10504 10500 10497 10493 10490 10486 10482 10478 10476 10472 10469 10466 10460 10455 10452 10449 10445 10442
10518 10520 10523 10526 10528 10530 10532 10534 10534 10535 10536 10536 10536 10536 10536 10536 10535 10534 10532 10534 10535 10534 10532 10532 10534 10534 10536 10539 10541 10541 10540 10540 10540 10540 10540 10540 10540 10539 10538 10538 10536 10536 10536 10536 10535 10534 10532 10530 10529 10528 10526 10524 10522 10521 10520 10518 10516 10514 10513 10512 10510 10508 10506 10504 10501 10499 10496 10494 10490 10487 10482 10478 10476 10472 10468 10465 10461 10458 10454 10448 10443 10440 10436 10432 10429
10510 10512 10514 10516 10520 10522 10524 10526 10526 10527 10528 10528 10528 10528 10527 10527 10527 10526 10525 10526 10528 10528 10526 10527 10528 10528 10529 10530 10532 10531 10530 10530 10532 10534 10534 10533 10531 10530 10530 10530 10529 10528 10528 10528 10528 10526 10524 10522 10521 10519 10518 10516 10514 10512 10510 10508 10506 10504 10503 10502 10500 10499 10497 10494 10492 10490 10487 10484 10479 10474 10470 10466 10464 10462 10458 10454 10450 10446 10441 10436 10432 10428 10424 10421 10418
10501 10503 10506 10508 10512 10514 10516 10518 10518 10520 10520 10520 10520 10520 10520 10520 10520 10519 10518 10518 10520 10521 10521 10521 10522 10522 10522 10522 10522 10520 10520 10522 10524 10526 10525 10524 10522 10522 10522 10522 10520 10520 10520 10520 10520 10518 10516 10514 10512 10510 10509 10507 10505 10503 10500 10498 10496 10494 10494 10493 10492 10490 10488 10485 10482 10480 10476 10472 10468 10463 10458 10454 10452 10450 10446 10442 10438 10434 10429 10424 10420 10416 10413 10410 10406
10492 10494 10497 10501 10504 10506 10507 10508 10510 10511 10512 10512 10512 10514 10514 10514 10513 10512 10512 10510 10512 10514 10515 10515 10516 10516 10514 10514 10514 10513 10514 10515 10516 10516 10515 10515 10515 10514 10514 10513 10512 10512 10512 10511 10510 10509 10508 10506 10504 10502 10500 10498 10496 10494 10490 10488 10486 10486 10485 10484 10482 10479 10476 10473 10470 10468 10464 10460 10456 10451 10446 10442 10438 10436 10432 10428 10425 10421 10417 10412 10408 10404 10401 10398 10394
10485 10486 10489 10493 10496 10497 10498 10500 10502 10502 10504 10504 10505 10505 10506 10506 10506 10505 10504 10504 10504 10506 10507 10507 10508 10508 10506 10506 10506 10506 10507 10508 10508 10507 10506 10506 10506 10506 10505 10504 10504 10502 10502 10500 10500 10500 10498 10497 10496 10494 10492 10490 10487 10484 10481 10479 10478 10476 10476 10473 10470 10466 10464 10460 10458 10454 10450 10446 10442 10438 10432 10428 10424 10421 10418 10415 10412 10408 10404 10399 10395 10391 10388 10384 10380
10477 10478 10481 10484 10486 10488 10490 10492 10492 10494 10495 10496 10497 10497 10498 10498 10498 10497 10496 10496 10497 10498 10498 10500 10500 10500 10499 10498 10498 10498 10498 10499 10500 10500 10498 10498 10497 10496 10496 10496 10494 10494 10492 10491 10490 10490 10488 10488 10486 10485 10483 10480 10477 10474 10472 10470 10468 10466 10464 10460 10458 10454 10450 10448 10444 10440 10435 10431 10428 10424 10420 10416 10412 10408 10405 10402 10398 10394 10390 10385 10380 10376 10372 10368 10364
10469 10470 10473 10475 10477 10478 10480 10482 10484 10485 10486 10488 10488 10490 10490 10490 10490 10490 10489 10489 10490 10490 10490 10492 10492 10492 10492 10490 10490 10490 10490 10490 10490 10490 10490 10489 10488 10488 10487 10486 10486 10485 10484 10482 10481 10480 10478 10478 10476 10474 10472 10468 10466 10463 10462 10460 10458 10455 10452 10448 10445 10441 10438 10434 10430 10426 10422 10418 10414 10411 10408 10404 10400 10396 10392 10388 10384 10380 10376 10372 10368 10362 10357 10352 10347
10460 10462 10464 10466 10468 10469 10471 10473 10475 10476 10478 10478 10480 10480 10481 10481 10481 10482 10482 10482 10482 10483 10484 10484 10484 10484 10483 10482 10482 10481 10480 10480 10480 10480 10480 10480 10480 10479 10478 10478 10477 10476 10474 10473 10472 10470 10468 10467 10466 10463 10460 10458 10454 10452 10450 10448 10446 10442 10438 10436 10432 10428 10424 10420 10417 10414 10410 10406 10402 10398 10394 10390 10386 10382 10378 10376 10372 10368 10363 10358 10354 10349 10343 10336 10330
10451 10452 10454 10456 10458 10460 10462 10463 10465 10467 10468 10470 10470 10471 10471 10472 10472 10473 10474 10474 10475 10475 10475 10474 10474 10474 10474 10474 10473 10472 10472 10472 10471 10470 10470 10470 10470 10469 10468 10468 10466 10466 10464 10462 10461 10460 10458 10456 10454 10452 10450 10446 10443 10440 10438 10436 10433 10429 10425 10422 10419 10416 10412 10408 10404 10400 10398 10394 10390 10386 10380 10376 10372 10368 10364 10360 10356 10352 10348 10342 10338 10332 10328 10322 10314
10440 10442 10444 10446 10448 10449 10451 10452 10454 10456 10458 10460 10460 10460 10461 10462 10464 10465 10466 10466 10466 10466 10465 10464 10464 10464 10464 10464 10464 10463 10463 10462 10462 10462 10460 10460 10460 10459 10458 10456 10455 10454 10453 10452 10450 10448 10446 10444 10442 10440 10438 10436 10432 10428 10426 10424 10421 10417 10413 10410 10408 10406 10402 10396 10390 10386 10384 10380 10375 10371 10366 10362 10358 10353 10348 10344 10340 10336 10332 10326 10321 10316 10310 10306 10300
10430 10432 10434 10436 10437 10438 10440 10442 10444 10446 10447 10448 10450 10450 10450 10452 10454 10456 10457 10456 10456 10455 10454 10454 10454 10454 10454 10454 10454 10454 10454 10453 10452 10452 10451 10450 10450 10449 10448 10446 10444 10443 10442 10440 10438 10436 10434 10432 10430 10428 10426 10424 10420 10417 10414 10411 10408 10404 10401 10398 10396 10394 10390 10384 10379 10374 10368 10364 10360 10355 10351 10347 10343 10338 10334 10329 10324 10319 10314 10310 10304 10299 10294 10290 10285
10420 10422 10423 10425 10426 10427 10429 10431 10432 10434 10436 10438 10439 10439 10440 10442 10444 10446 10446 10446 10444 10444 10445 10445 10444 10444 10444 10444 10444 10444 10443 10442 10442 10442 10440 10440 10439 10438 10436 10434 10433 10432 10430 10428 10426 10424 10422 10420 10418 10416 10414 10412 10409 10406 10402 10399 10396 10392 10388 10386 10384 10381 10378 10372 10367 10362 10356 10351 10346 10340 10337 10333 10328 10324 10319 10314 10308 10304 10298 10293 10288 10284 10280 10275 10271
10409 10411 10412 10414 10416 10416 10418 10420 10422 10423 10425 10426 10427 10428 10429 10432 10434 10435 10435 10434 10434 10435 10435 10434 10434 10434 10433 10433 10433 10432 10432 10432 10431 10430 10430 10428 10427 10426 10425 10423 10421 10420 10418 10416 10414 10412 10410 10408 10405 10403 10401 10399 10396 10394 10391 10388 10384 10380 10376 10372 10370 10366 10363 10359 10354 10349 10344 10339 10334 10328 10324 10319 10314 10310 10304 10298 10294 10288 10284 10279 10275 10270 10266 10262 10259
10398 10400 10402 10402 10404 10406 10407 10409 10410 10412 10414 10414 10414 10416 10418 10420 10422 10422 10424 10424 10426 10424 10422 10421 10422 10422 10422 10422 10422 10421 10420 10420 10419 10418 10418 10416 10415 10414 10412 10411 10409 10408 10406 10404 10402 10400 10397 10395 10392 10390 10388 10386 10384 10382 10379 10376 10373 10369 10365 10360 10356 10352 10348 10344 10340 10336 10331 10326 10321 10316 10310 10304 10300 10296 10290 10284 10280 10275 10271 10267 10263 10258 10255 10252 10248
10387 10388 10390 10391 10392 10394 10396 10398 10400 10401 10402 10402 10402 10404 10406 10407 10408 10410 10412 10414 10414 10411 10409 10409 10411 10412 10411 10410 10410 10408 10408 10408 10408 10406 10406 10404 10403 10402 10400 10398 10396 10394 10392 10390 10389 10386 10384 10382 10380 10378 10376 10373 10370 10368 10366 10363 10360 10356 10352 10348 10344 10340 10335 10330 10325 10320 10316 10312 10306 10302 10296 10291 10286 10282 10276 10271 10266 10263 10260 10256 10252 10248 10244 10241 10238
10375 10376 10378 10380 10381 10382 10384 10386 10388 10389 10390 10389 10390 10392 10394 10395 10396 10398 10400 10402 10400 10396 10396 10400 10402 10402 10400 10398 10397 10396 10396 10396 10395 10394 10393 10392 10390 10389 10388 10386 10384 10382 10380 10378 10376 10374 10372 10370 10368 10366 10363 10360 10358 10354 10352 10348 10346 10342 10339 10335 10331 10326 10322 10316 10312 10306 10302 10297 10292 10288 10282 10278 10274 10269 10264 10260 10255 10251 10248 10245 10241 10238 10234 10232 10228
10363 10365 10366 10368 10368 10370 10372 10376 10377 10377 10376 10376 10377 10380 10382 10382 10384 10386 10388 10390 10388 10384 10384 10388 10390 10390 10388 10386 10384 10385 10384 10384 10382 10382 10381 10380 10378 10376 10375 10374 10372 10370 10368 10366 10364 10362 10360 10358 10355 10352 10350 10348 10345 10342 10338 10336 10332 10329 10326 10322 10317 10312 10308 10304 10298 10294 10288 10283 10279 10274 10270 10266 10262 10257 10252 10249 10244 10240 10238 10234 10231 10227 10224 10222 10219
10350 10353 10354 10355 10356 10358 10360 10363 10364 10364 10364 10362 10364 10366 10368 10370 10372 10372 10374 10376 10375 10372 10372 10374 10376 10376 10376 10374 10372 10372 10372 10371 10370 10370 10368 10368 10366 10364 10363 10362 10360 10358 10356 10354 10352 10349 10347 10345 10342 10340 10338 10335 10332 10330 10326 10323 10320 10316 10312 10308 10304 10300 10295 10290 10285 10280 10276 10270 10266 10262 10258 10255 10250 10246 10242 10239 10235 10231 10228 10225 10222 10218 10215 10212 10210
10338 10340 10342 10343 10344 10346 10348 10350 10350 10351 10350 10350 10352 10354 10356 10358 10358 10359 10360 10362 10362 10361 10361 10362 10361 10362 10362 10360 10359 10359 10359 10358 10358 10357 10356 10356 10354 10352 10351 10350 10348 10346 10344 10341 10339 10336 10334 10332 10330 10328 10325 10322 10320 10316 10313 10310 10307 10304 10300 10296 10291 10286 10282 10278 10273 10268 10264 10259 10255 10251 10248 10244 10240 10236 10232 10230 10226 10222 10218 10216 10213 10210 10206 10204 10202
10324 10327 10329 10331 10332 10334 10336 10336 10336 10336 10338 10338 10340 10342 10344 10345 10346 10346 10347 10348 10347 10348 10348 10348 10348 10348 10348 10346 10346 10346 10345 10345 10344 10344 10344 10342 10341 10340 10338 10336 10334 10332 10330 10328 10326 10324 10321 10318 10316 10314 10312 10310 10306 10304 10300 10298 10294 10291 10287 10282 10278 10274 10270 10266 10262 10257 10252 10248 10244 10241 10238 10234 10230 10227 10224 10220 10216 10212 10210 10207 10205 10202 10198 10196 10193
10312 10313 10315 10318 10320 10322 10323 10322 10322 10323 10324 10326 10327 10328 10330 10332 10333 10334 10334 10334 10334 10334 10335 10335 10335 10335 10334 10334 10332 10332 10331 10331 10331 10330 10330 10328 10327 10326 10324 10322 10321 10319 10317 10315 10312 10310 10308 10306 10304 10302 10300 10297 10294 10292 10288 10284 10282 10278 10274 10270 10266 10262 10258 10254 10250 10246 10242 10238 10234 10231 10228 10224 10221 10218 10215 10212 10208 10204 10201 10198 10196 10194 10192 10189 10186
10298 10300 10302 10304 10306 10309 10310 10308 10308 10310 10312 10314 10314 10316 10317 10318 10320 10320 10320 10320 10320 10320 10320 10322 10322 10322 10321 10320 10320 10318 10318 10317 10316 10316 10315 10314 10313 10312 10310 10309 10308 10306 10304 10302 10299 10297 10294 10293 10292 10289 10287 10284 10282 10279 10276 10272 10269 10266 10262 10258 10254 10250 10246 10242 10239 10236 10232 10228 10225 10222 10218 10215 10212 10209 10206 10204 10200 10197 10194 10191 10188 10186 10184 10182 10180
10285 10287 10288 10290 10292 10296 10296 10295 10294 10296 10298 10300 10302 10303 10304 10306 10306 10306 10306 10306 10307 10307 10308 10308 10308 10308 10308 10307 10306 10305 10304 10304 10303 10302 10302 10300 10300 10298 10297 10296 10294 10292 10290 10288 10286 10284 10282 10280 10279 10276 10274 10272 10269 10266 10263 10260 10256 10252 10249 10246 10242 10240 10236 10232 10229 10226 10222 10219 10216 10213 10210 10206 10203 10200 10198 10195 10192 10190 10186 10184 10182 10180 10177 10175 10173
10272 10274 10275 10276 10278 10281 10282 10280 10280 10283 10286 10286 10288 10290 10291 10292 10293 10293 10293 10294 10294 10294 10294 10294 10294 10294 10294 10294 10293 10292 10292 10291 10290 10290 10288 10288 10286 10286 10284 10282 10281 10279 10277 10274 10273 10272 10270 10268 10266 10264 10262 10260 10256 10254 10250 10248 10244 10240 10237 10234 10232 10228 10226 10222 10220 10216 10213 10210 10208 10204 10202 10198 10196 10192 10190 10188 10185 10182 10180 10177 10174 10172 10170 10168 10166
10260 10261 10262 10264 10265 10268 10268 10267 10266 10268 10270 10272 10274 10276 10277 10278 10280 10280 10280 10280 10280 10280 10280 10281 10281 10281 10280 10280 10280 10280 10279 10278 10278 10277 10276 10275 10274 10272 10272 10270 10268 10266 10264 10262 10260 10259 10258 10256 10254 10252 10250 10248 10245 10242 10239 10236 10233 10230 10226 10224 10220 10218 10216 10214 10211 10208 10205 10202 10199 10196 10194 10190 10188 10186 10183 10180 10178 10176 10174 10171 10168 10166 10164 10162 10160
10247 10248 10250 10250 10252 10254 10256 10255 10254 10254 10255 10258 10260 10262 10262 10264 10266 10266 10266 10266 10267 10267 10267 10267 10267 10267 10267 10267 10267 10266 10266 10265 10264 10264 10263 10262 10261 10260 10259 10258 10256 10254 10252 10250 10248 10246 10244 10243 10242 10240 10238 10236 10234 10231 10228 10226 10223 10220 10217 10214 10212 10209 10207 10204 10202 10200 10198 10194 10191 10188 10186 10183 10181 10178 10176 10174 10171 10169 10167 10164 10162 10160 10158 10156 10155
10235 10236 10237 10238 10240 10241 10242 10243 10242 10242 10242 10244 10246 10248 10250 10251 10252 10252 10252 10253 10254 10254 10254 10254 10253 10253 10254 10254 10254 10253 10252 10252 10252 10251 10250 10250 10249 10248 10246 10245 10243 10242 10240 10238 10236 10234 10233 10231 10230 10228 10226 10224 10222 10220 10218 10216 10213 10211 10208 10206 10203 10200 10198 10196 10194 10192 10190 10188 10184 10182 10178 10176 10174 10172 10169 10166 10164 10162 10160 10158 10156 10154 10152 10151 10150
10224 10224 10226 10227 10228 10228 10230 10230 10232 10231 10232 10232 10234 10236 10237 10238 10239 10239 10240 10240 10240 10240 10240 10240 10240 10240 10241 10241 10241 10240 10240 10240 10240 10239 10238 10238 10237 10236 10235 10234 10232 10230 10228 10227 10226 10224 10222 10220 10218 10218 10216 10214 10212 10210 10208 10206 10204 10202 10200 10198 10195 10192 10190 10188 10186 10184 10182 10180 10178 10175 10172 10170 10168 10165 10162 10160 10158 10156 10154 10152 10150 10148 10147 10146 10144
10214 10214 10215 10216 10216 10217 10218 10219 10220 10220 10220 10221 10223 10224 10226 10226 10226 10226 10227 10228 10228 10228 10228 10228 10228 10229 10230 10230 10230 10230 10228 10228 10228 10227 10226 10226 10226 10225 10224 10222 10220 10219 10218 10216 10215 10214 10212 10210 10208 10208 10206 10205 10202 10200 10199 10197 10195 10193 10191 10189 10187 10185 10183 10181 10179 10177 10175 10174 10171 10168 10166 10164 10161 10158 10156 10154 10152 10150 10148 10146 10144 10142 10141 10140 10138